CW4113 Weather Reports


time (UTC)temp
F
wind
direction
speed
knots
gust
knots
rain 1hr
in
rain 24hr
in
rain mn
in
humidity
%
barometer
mb
20260510043304 50 130 0.0 1.7 0.00 0.11 0.00 93 1010.9
20260510042805 50 130 0.9 1.7 0.00 0.11 0.00 93 1010.9
20260510042306 50 130 0.0 0.0 0.00 0.11 0.00 93 1010.9
20260510041804 50 130 0.0 0.0 0.00 0.11 0.00 93 1011.0
20260510041304 50 130 0.0 0.0 0.00 0.11 0.00 93 1011.0
20260510040817 50 130 0.0 0.0 0.00 0.11 0.00 93 1011.1
20260510040304 50 130 0.0 0.9 0.00 0.11 0.00 93 1011.1
20260510035804 50 130 0.0 1.7 0.00 0.11 0.11 93 1011.1
20260510035306 51 130 0.9 2.6 0.00 0.11 0.11 93 1011.1
20260510034804 51 130 1.7 2.6 0.00 0.11 0.11 93 1011.0
20260510034304 51 130 1.7 2.6 0.00 0.11 0.11 93 1011.0
20260510033804 51 130 0.9 1.7 0.00 0.11 0.11 93 1011.1
20260510033304 51 130 0.9 1.7 0.00 0.11 0.11 93 1011.1
20260510032306 51 130 0.0 0.9 0.00 0.11 0.11 93 1011.1
20260510031804 51 130 0.0 1.7 0.00 0.11 0.11 92 1011.1
20260510031304 52 130 0.9 2.6 0.00 0.11 0.11 92 1011.1
20260510030804 52 130 0.9 1.7 0.00 0.11 0.11 92 1011.1
20260510030304 52 130 0.9 1.7 0.00 0.11 0.11 92 1011.0
20260510025306 52 130 0.0 0.0 0.00 0.11 0.11 92 1010.9
20260510023803 53 130 0.0 0.9 0.00 0.11 0.11 92 1010.9
20260510023304 53 130 0.9 1.7 0.00 0.11 0.11 92 1010.8
20260510022306 53 130 0.9 1.7 0.00 0.11 0.11 91 1010.9
20260510021804 53 130 0.9 1.7 0.00 0.11 0.11 91 1010.8
20260510021304 54 130 0.0 1.7 0.00 0.11 0.11 91 1010.9
20260510020803 54 130 1.7 2.6 0.00 0.11 0.11 91 1010.7
20260510020304 54 130 0.9 2.6 0.00 0.11 0.11 90 1010.6
20260510015804 54 130 2.6 2.6 0.00 0.11 0.11 91 1010.6
20260510015306 54 129 2.6 2.6 0.00 0.11 0.11 91 1010.6
20260510014804 54 131 1.7 5.2 0.00 0.11 0.11 90 1010.5
20260510014304 54 134 2.6 2.6 0.00 0.11 0.11 90 1010.4
20260510013304 55 131 1.7 2.6 0.00 0.11 0.11 90 1010.5
20260510012803 55 131 1.7 2.6 0.00 0.11 0.11 90 1010.4
20260510012306 55 131 1.7 2.6 0.00 0.11 0.11 90 1010.5
20260510011804 55 122 0.9 2.6 0.00 0.11 0.11 90 1010.4
20260510011305 55 121 1.7 2.6 0.00 0.11 0.11 89 1010.4
20260510010806 55 128 1.7 2.6 0.00 0.11 0.11 89 1010.3
20260510005806 55 146 0.0 0.0 0.00 0.11 0.11 89 1010.3
20260510005306 55 146 0.0 0.0 0.00 0.11 0.11 88 1010.2
20260510004806 56 146 0.0 0.0 0.00 0.11 0.11 87 1010.1
20260510004306 56 146 0.9 1.7 0.00 0.11 0.11 87 1010.1
20260510003806 56 146 1.7 4.3 0.00 0.11 0.11 87 1009.9
20260510003305 56 142 1.7 2.6 0.00 0.11 0.11 86 1009.9
20260510002805 57 138 1.7 2.6 0.00 0.11 0.11 86 1009.7
20260510002307 57 138 1.7 2.6 0.00 0.11 0.11 86 1009.7
20260510000806 57 147 1.7 4.3 0.00 0.11 0.11 84 1009.7
20260510000305 57 153 1.7 2.6 0.00 0.11 0.11 84 1009.6
20260509235806 57 149 2.6 4.3 0.00 0.11 0.11 83 1009.6
20260509235307 58 161 2.6 2.6 0.00 0.11 0.11 82 1009.5
20260509234805 58 152 1.7 2.6 0.00 0.11 0.11 82 1009.6
20260509234306 58 145 1.7 2.6 0.00 0.11 0.11 81 1009.6
20260509233806 59 137 1.7 2.6 0.00 0.11 0.11 80 1009.5
20260509233305 59 124 1.7 2.6 0.00 0.11 0.11 80 1009.4
20260509232806 59 129 2.6 2.6 0.00 0.11 0.11 79 1009.4
20260509231805 60 119 1.7 4.3 0.00 0.11 0.11 78 1009.5
20260509231306 60 129 1.7 4.3 0.00 0.11 0.11 77 1009.5
20260509230805 60 120 1.7 2.6 0.00 0.11 0.11 77 1009.5
20260509225806 60 160 1.7 2.6 0.00 0.11 0.11 76 1009.6
20260509225306 60 132 0.9 1.7 0.00 0.11 0.11 77 1009.6
20260509224806 60 132 1.7 2.6 0.00 0.11 0.11 76 1009.6
20260509224306 60 125 0.9 2.6 0.00 0.11 0.11 76 1009.6
20260509223805 60 136 2.6 4.3 0.00 0.11 0.11 76 1009.5
20260509223306 60 142 0.9 2.6 0.00 0.11 0.11 76 1009.5
20260509222806 60 146 2.6 2.6 0.00 0.11 0.11 75 1009.5
20260509222307 60 131 1.7 2.6 0.00 0.11 0.11 75 1009.4
20260509221806 60 67 0.9 2.6 0.00 0.11 0.11 75 1009.4
20260509221305 60 338 0.9 2.6 0.00 0.11 0.11 75 1009.4
20260509220805 60 338 0.9 2.6 0.00 0.11 0.11 75 1009.5
20260509215806 60 338 0.0 1.7 0.00 0.11 0.11 76 1009.7
20260509215306 60 338 1.7 2.6 0.00 0.11 0.11 76 1009.6
20260509214805 60 338 0.9 2.6 0.00 0.11 0.11 78 1009.7
20260509214305 60 321 2.6 2.6 0.00 0.11 0.11 77 1009.8
20260509213805 60 327 2.6 4.3 0.00 0.11 0.11 77 1009.9
20260509213305 60 331 2.6 4.3 0.00 0.11 0.11 77 1010.0
20260509212805 60 269 1.7 2.6 0.00 0.11 0.11 78 1009.9
20260509212306 60 338 2.6 2.6 0.00 0.11 0.11 77 1009.8
20260509211806 60 338 0.9 1.7 0.00 0.11 0.11 77 1009.8
20260509210805 59 338 0.9 2.6 0.00 0.11 0.11 78 1009.7
20260509210305 59 338 1.7 2.6 0.00 0.11 0.11 78 1009.7
20260509205805 59 338 0.0 1.7 0.00 0.11 0.11 78 1009.8
20260509204306 60 74 1.7 2.6 0.00 0.11 0.11 77 1010.1
20260509203806 60 314 2.6 7.0 0.00 0.11 0.11 77 1010.0
20260509203305 60 331 2.6 8.7 0.00 0.11 0.11 76 1010.2
20260509202806 61 331 5.2 7.8 0.00 0.11 0.11 74 1010.3
20260509201806 62 305 1.7 7.0 0.00 0.11 0.11 75 1010.3
20260509201305 61 324 4.3 7.8 0.00 0.11 0.11 75 1010.3
20260509200806 61 245 1.7 6.1 0.00 0.11 0.11 77 1010.3
20260509200305 61 321 5.2 7.8 0.00 0.11 0.11 76 1010.3
20260509195805 61 23 0.9 2.6 0.00 0.11 0.11 79 1010.3
20260509195306 61 0 2.6 6.1 0.00 0.11 0.11 82 1010.3
20260509194806 60 99 0.9 2.6 0.00 0.11 0.11 83 1010.2
20260509193806 60 63 2.6 4.3 0.00 0.11 0.11 83 1010.3
20260509192306 59 57 0.9 2.6 0.00 0.11 0.11 83 1010.5
20260509191305 59 57 2.6 5.2 0.01 0.11 0.11 85 1010.6
20260509190805 59 52 2.6 2.6 0.02 0.11 0.11 85 1010.7
20260509190305 58 111 1.7 2.6 0.02 0.11 0.11 86 1010.7
20260509185805 58 138 4.3 7.8 0.02 0.11 0.11 86 1010.7
20260509185306 57 106 2.6 7.8 0.02 0.11 0.11 86 1010.7
20260509184805 56 140 3.5 7.0 0.02 0.11 0.11 86 1011.0
20260509184305 56 135 2.6 5.2 0.02 0.11 0.11 86 1011.1
20260509183805 56 178 0.9 1.7 0.02 0.11 0.11 85 1011.2
20260509183305 56 178 0.0 0.9 0.02 0.11 0.11 86 1011.4
20260509182805 55 178 0.0 0.9 0.02 0.11 0.11 86 1011.4
20260509181305 55 162 1.7 2.6 0.01 0.10 0.10 86 1011.4
20260509180805 56 204 2.6 4.3 0.00 0.09 0.09 86 1011.7
20260509175805 56 176 0.9 1.7 0.00 0.09 0.09 85 1011.6
20260509175307 56 194 0.0 1.7 0.00 0.09 0.09 85 1011.6
20260509174805 56 218 0.0 1.7 0.00 0.09 0.09 84 1011.6
20260509174305 56 218 0.0 0.9 0.00 0.09 0.09 84 1011.6
20260509173806 55 218 0.9 1.7 0.00 0.09 0.09 83 1011.5
20260509173306 55 218 0.0 1.7 0.00 0.09 0.09 82 1011.6
20260509172805 56 218 0.9 1.7 0.00 0.09 0.09 83 1011.6
20260509171805 55 216 2.6 4.3 0.01 0.09 0.09 84 1011.7
20260509170305 55 261 1.7 2.6 0.04 0.09 0.09 84 1011.6
20260509165805 56 263 1.7 2.6 0.05 0.09 0.09 85 1011.5
20260509164305 55 334 1.7 5.2 0.07 0.09 0.09 85 1011.2
20260509163805 55 261 0.9 2.6 0.08 0.09 0.09 85 1011.2
20260509163305 55 241 0.9 1.7 0.08 0.09 0.09 85 1011.3
20260509162805 55 241 0.9 2.6 0.09 0.09 0.09 84 1011.0
20260509162307 55 241 0.0 1.7 0.08 0.08 0.08 84 1011.3
20260509161305 55 241 1.7 2.6 0.07 0.07 0.07 82 1011.8
20260509160805 56 241 0.9 2.6 0.06 0.06 0.06 82 1011.8
20260509160305 56 241 0.9 2.6 0.05 0.05 0.05 80 1011.9
20260509155805 56 241 0.0 1.7 0.04 0.04 0.04 80 1011.8
20260509155306 56 241 0.0 2.6 0.03 0.03 0.03 79 1011.9
20260509154805 56 233 2.6 5.2 0.03 0.03 0.03 77 1012.0
20260509154305 57 207 2.6 5.2 0.02 0.02 0.02 77 1012.1
20260509153305 57 243 3.5 7.0 0.01 0.01 0.01 74 1012.3
20260509152805 58 231 3.5 7.0 0.00 0.00 0.00 72 1012.3
20260509152306 58 205 2.6 7.8 0.00 0.00 0.00 69 1012.2
20260509151805 59 236 2.6 10.4 0.00 0.00 0.00 68 1012.2
20260509150805 59 257 4.3 8.7 0.00 0.00 0.00 66 1012.2
20260509150305 59 200 2.6 8.7 0.00 0.00 0.00 66 1012.1
20260509145805 60 207 5.2 11.3 0.00 0.00 0.00 66 1012.1
20260509145306 60 234 8.7 15.6 0.00 0.00 0.00 66 1012.1
20260509144305 59 244 2.6 5.2 0.00 0.00 0.00 68 1011.9
20260509143805 59 192 2.6 7.8 0.00 0.00 0.00 69 1011.8
20260509142805 59 264 4.3 8.7 0.00 0.00 0.00 68 1011.9
20260509142307 59 239 3.5 8.7 0.00 0.00 0.00 68 1011.6
20260509141804 59 179 2.6 7.0 0.00 0.00 0.00 70 1011.6
20260509141305 59 242 1.7 5.2 0.00 0.00 0.00 69 1011.7
20260509140805 59 227 5.2 10.4 0.00 0.00 0.00 69 1011.5
20260509140305 59 241 1.7 7.8 0.00 0.00 0.00 72 1011.5
20260509135805 59 350 0.9 2.6 0.00 0.00 0.00 73 1011.2
20260509135306 59 197 1.7 5.2 0.00 0.00 0.00 72 1011.2
20260509134805 59 304 1.7 5.2 0.00 0.00 0.00 73 1011.4
20260509134305 58 213 2.6 5.2 0.00 0.00 0.00 73 1011.4
20260509133805 58 322 1.7 2.6 0.00 0.00 0.00 73 1011.3
20260509132805 58 269 0.9 5.2 0.00 0.00 0.00 72 1011.4
20260509132306 58 216 2.6 7.8 0.00 0.00 0.00 73 1011.3
20260509131304 57 278 3.5 7.0 0.00 0.00 0.00 76 1011.4
20260509130805 57 200 0.9 2.6 0.00 0.00 0.00 78 1011.4
20260509130304 56 71 1.7 2.6 0.00 0.00 0.00 77 1011.4
20260509125805 56 72 0.9 2.6 0.00 0.00 0.00 77 1011.4
20260509125307 56 72 2.6 4.3 0.00 0.00 0.00 78 1011.3
20260509124805 56 80 0.9 2.6 0.00 0.00 0.00 78 1011.4
20260509124305 56 80 1.7 2.6 0.00 0.00 0.00 77 1011.4
20260509123804 56 80 1.7 2.6 0.00 0.00 0.00 78 1011.1
20260509122805 55 93 0.9 2.6 0.00 0.00 0.00 78 1011.2
20260509122306 55 55 1.7 2.6 0.00 0.00 0.00 78 1011.2
20260509121805 55 112 1.7 2.6 0.00 0.00 0.00 77 1011.2
20260509121305 55 73 1.7 2.6 0.00 0.00 0.00 78 1011.2
20260509120805 55 119 1.7 2.6 0.00 0.00 0.00 78 1011.3
20260509120304 55 71 1.7 2.6 0.00 0.00 0.00 78 1011.3
20260509115805 54 131 0.9 1.7 0.00 0.00 0.00 78 1011.5
20260509115306 54 131 1.7 2.6 0.00 0.00 0.00 78 1011.3
20260509114805 54 131 1.7 2.6 0.00 0.00 0.00 78 1011.2
20260509114304 54 72 1.7 2.6 0.00 0.00 0.00 78 1011.2
20260509113804 54 72 1.7 2.6 0.00 0.00 0.00 79 1011.2
20260509113305 54 119 1.7 2.6 0.00 0.00 0.00 79 1011.2
20260509112804 54 71 1.7 2.6 0.00 0.00 0.00 79 1011.2
20260509112307 54 120 1.7 2.6 0.00 0.00 0.00 79 1011.3
20260509111805 54 120 2.6 4.3 0.00 0.00 0.00 79 1011.2
20260509111305 54 120 1.7 4.3 0.00 0.00 0.00 79 1011.1
20260509110805 54 120 1.7 2.6 0.00 0.00 0.00 80 1011.1
20260509110305 53 120 0.9 2.6 0.00 0.00 0.00 80 1011.0
20260509105805 53 120 0.9 2.6 0.00 0.00 0.00 80 1011.1
20260509105306 53 120 0.0 1.7 0.00 0.00 0.00 79 1011.0
20260509104805 53 120 1.7 2.6 0.00 0.00 0.00 80 1010.9
20260509104305 53 120 0.9 2.6 0.00 0.00 0.00 80 1010.8
20260509103804 52 120 1.7 2.6 0.00 0.00 0.00 81 1010.7
20260509103305 52 120 1.7 2.6 0.00 0.00 0.00 81 1010.6
20260509102804 51 120 1.7 2.6 0.00 0.00 0.00 80 1010.7
20260509102306 51 120 0.9 1.7 0.00 0.00 0.00 81 1011.0
20260509101805 51 120 0.0 1.7 0.00 0.00 0.00 81 1010.7
20260509101305 51 120 0.9 1.7 0.00 0.00 0.00 80 1010.6
20260509100804 51 120 0.0 2.6 0.00 0.00 0.00 80 1010.6
20260509100304 51 120 1.7 1.7 0.00 0.00 0.00 79 1010.6
20260509095306 51 120 0.9 2.6 0.00 0.00 0.00 78 1010.7
20260509093804 51 120 1.7 2.6 0.00 0.00 0.00 78 1010.7
20260509093305 51 120 0.9 2.6 0.00 0.00 0.00 78 1010.7
20260509092805 51 49 1.7 2.6 0.00 0.00 0.00 78 1010.9
20260509092306 51 49 0.9 1.7 0.00 0.00 0.00 79 1010.8
20260509091805 51 49 0.0 0.9 0.00 0.00 0.00 79 1010.9
20260509091305 50 49 0.0 0.9 0.00 0.00 0.00 78 1010.9
20260509090804 51 49 0.0 0.0 0.00 0.00 0.00 78 1010.9
20260509090304 51 49 0.0 0.0 0.00 0.00 0.00 78 1010.9
20260509085804 51 49 0.0 0.9 0.00 0.00 0.00 78 1010.9
20260509085306 51 49 0.0 0.0 0.00 0.00 0.00 78 1011.0
20260509084805 50 49 0.0 0.9 0.00 0.00 0.00 78 1011.1
20260509084304 51 49 0.9 1.7 0.00 0.00 0.00 77 1011.1
20260509083804 51 49 0.0 0.9 0.00 0.00 0.00 77 1011.2
20260509083304 51 49 0.9 1.7 0.00 0.00 0.00 76 1011.1
20260509082805 51 49 0.9 2.6 0.00 0.00 0.00 76 1011.2
20260509082307 51 49 1.7 1.7 0.00 0.00 0.00 77 1011.2
20260509081804 50 49 0.0 2.6 0.00 0.00 0.00 79 1011.3
20260509081304 50 215 1.7 1.7 0.00 0.00 0.00 78 1011.2
20260509080804 50 215 0.0 0.9 0.00 0.00 0.00 78 1011.3
20260509080305 50 215 0.0 0.0 0.00 0.00 0.00 78 1011.3
20260509075804 50 215 0.0 0.9 0.00 0.00 0.00 78 1011.4
20260509074804 50 215 0.0 0.9 0.00 0.00 0.00 78 1011.4
20260509074304 50 215 0.0 0.9 0.00 0.00 0.00 78 1011.4
20260509073804 51 215 0.0 0.9 0.00 0.00 0.00 77 1011.5
20260509073304 51 215 0.9 0.9 0.00 0.00 0.00 76 1011.5
20260509072804 51 215 0.0 0.9 0.00 0.00 0.00 75 1011.5
20260509072306 51 215 0.9 1.7 0.00 0.00 0.00 75 1011.6
20260509071804 51 215 0.9 1.7 0.00 0.00 0.00 74 1011.6
20260509071304 51 215 0.9 1.7 0.00 0.00 0.00 73 1011.5
20260509070304 52 156 0.9 1.7 0.00 0.00 0.00 72 1011.4
20260509065804 52 156 0.9 1.7 0.00 0.00 0.00 71 1011.4
20260509065306 53 156 0.9 0.9 0.00 0.00 0.00 70 1011.4
20260509064804 53 156 0.0 0.9 0.00 0.00 0.00 68 1011.4
20260509064304 54 156 0.9 2.6 0.00 0.00 0.00 67 1011.4
20260509063804 53 156 1.7 2.6 0.00 0.00 0.00 67 1011.4
20260509063304 53 156 2.6 4.3 0.00 0.00 0.00 66 1011.3
20260509062306 53 134 0.9 2.6 0.00 0.00 0.00 64 1011.5
20260509061804 53 139 2.6 4.3 0.00 0.00 0.00 65 1011.6
20260509060804 53 138 0.9 2.6 0.00 0.00 0.00 66 1011.7
20260509060304 53 138 1.7 2.6 0.00 0.00 0.00 66 1011.8
20260509055805 53 130 2.6 4.3 0.00 0.00 0.00 68 1011.9
20260509055306 52 148 1.7 2.6 0.00 0.00 0.00 68 1012.0
20260509054804 52 150 1.7 2.6 0.00 0.00 0.00 68 1012.1
20260509054304 52 211 0.9 1.7 0.00 0.00 0.00 69 1012.2
20260509053804 52 211 0.0 1.7 0.00 0.00 0.00 68 1012.3
20260509053304 52 211 1.7 2.6 0.00 0.00 0.00 67 1012.3
20260509052804 52 211 1.7 2.6 0.00 0.00 0.00 67 1012.3
20260509052307 52 211 1.7 2.6 0.00 0.00 0.00 68 1012.3
20260509051304 53 211 0.0 0.9 0.00 0.00 0.00 68 1012.4
20260509050804 53 211 0.9 2.6 0.00 0.00 0.00 68 1012.3
20260509045804 54 211 0.9 2.6 0.00 0.00 0.00 66 1012.5
20260509045306 54 211 0.9 2.6 0.00 0.00 0.00 67 1012.6
20260509044804 54 211 1.7 2.6 0.00 0.00 0.00 67 1012.5
20260509044303 54 211 0.9 1.7 0.00 0.00 0.00 67 1012.4